2023/05/02 00:00:00, 0.0, 6.8
2023/05/02 00:10:00, 0.0, 7.2
2023/05/02 00:20:00, 0.0, 6.9
2023/05/02 00:30:00, 0.0, 7.5
2023/05/02 00:40:00, 0.0, 7.3
2023/05/02 00:50:00, 0.0, 7.1
2023/05/02 01:00:00, 0.0, 7.4
2023/05/02 01:10:00, 0.0, 6.5
2023/05/02 01:20:00, 0.0, 6.8
2023/05/02 01:30:00, 0.0, 7.0
2023/05/02 01:40:00, 0.0, 7.3
2023/05/02 01:50:00, 0.0, 6.7
2023/05/02 02:00:00, 0.0, 7.1
2023/05/02 02:10:00, 0.0, 6.8
2023/05/02 02:20:00, 0.0, 7.0
2023/05/02 02:30:00, 0.0, 7.1
2023/05/02 02:40:00, 0.0, 6.7
2023/05/02 02:50:00, 0.0, 7.2
2023/05/02 03:00:00, 0.0, 7.0
2023/05/02 03:10:00, 0.0, 7.0
2023/05/02 03:20:00, 0.0, 7.1
2023/05/02 03:30:00, 0.0, 6.9
2023/05/02 03:40:00, 0.0, 6.8
2023/05/02 03:50:00, 0.0, 6.9
2023/05/02 04:00:00, 0.0, 6.6
2023/05/02 04:10:00, 0.0, 7.1
2023/05/02 04:20:00, 0.0, 6.5
2023/05/02 04:30:00, 0.0, 6.1
2023/05/02 04:40:00, 0.0, 6.7
2023/05/02 04:50:00, 0.0, 6.1
2023/05/02 05:00:00, 0.0, 6.4
2023/05/02 05:10:00, 0.0, 5.7
2023/05/02 05:20:00, 0.0, 6.1
2023/05/02 05:30:00, 0.0, 6.0
2023/05/02 05:40:00, 0.0, 6.3
2023/05/02 05:50:00, 0.0, 6.6
2023/05/02 06:00:00, 0.0, 6.7
2023/05/02 06:10:00, 0.0, 7.1
2023/05/02 06:20:00, 0.0, 6.8
2023/05/02 06:30:00, 0.0, 6.7
2023/05/02 06:40:00, 0.0, 7.4
2023/05/02 06:50:00, 0.0, 9.3
2023/05/02 07:00:00, 0.0,10.0
2023/05/02 07:10:00, 0.0,10.7
2023/05/02 07:20:00, 0.0,10.8
2023/05/02 07:30:00, 0.0,10.6
2023/05/02 07:40:00, 0.0,11.4
2023/05/02 07:50:00, 0.0,10.8
2023/05/02 08:00:00, 0.0,12.8
2023/05/02 08:10:00, 0.0,10.8
2023/05/02 08:20:00, 0.0,10.5
2023/05/02 08:30:00, 0.0,10.6
2023/05/02 08:40:00, 0.0,10.9
2023/05/02 08:50:00, 0.0,11.7
2023/05/02 09:00:00, 0.0,11.8
2023/05/02 09:10:00, 0.0,11.4
2023/05/02 09:20:00, 0.0,11.8
2023/05/02 09:30:00, 0.0,12.2
2023/05/02 09:40:00, 0.0,12.0
2023/05/02 09:50:00, 0.0,12.8
2023/05/02 10:00:00, 0.0,12.6
2023/05/02 10:10:00, 0.0,13.2
2023/05/02 10:20:00, 0.0,13.7
2023/05/02 10:30:00, 0.0,14.3
2023/05/02 10:40:00, 0.0,13.3
2023/05/02 10:50:00, 0.0,14.0
2023/05/02 11:00:00, 0.0,14.8
2023/05/02 11:10:00, 0.0,14.5
2023/05/02 11:20:00, 0.0,14.6
2023/05/02 11:30:00, 0.0,14.5
2023/05/02 11:40:00, 0.0,14.9
2023/05/02 11:50:00, 0.0,14.9
2023/05/02 12:00:00, 0.0,14.8
2023/05/02 12:10:00, 0.0,14.7
2023/05/02 12:20:00, 0.0,15.1
2023/05/02 12:30:00, 0.0,15.6
2023/05/02 12:40:00, 0.0,15.0
2023/05/02 12:50:00, 0.0,15.2
2023/05/02 13:00:00, 0.0,15.4
2023/05/02 13:10:00, 0.0,15.6
2023/05/02 13:20:00, 0.0,15.9
2023/05/02 13:30:00, 0.0,16.0
2023/05/02 13:40:00, 0.0,18.0
2023/05/02 13:50:00, 0.0,18.1
2023/05/02 14:00:00, 0.0,19.1
2023/05/02 14:10:00, 0.0,17.7
2023/05/02 14:20:00, 0.0,18.4
2023/05/02 14:30:00, 0.0,18.2
2023/05/02 14:40:00, 0.0,19.0
2023/05/02 14:50:00, 0.0,19.8
2023/05/02 15:00:00, 0.0,19.9
2023/05/02 15:10:00, 0.0,19.4
2023/05/02 15:20:00, 0.0,19.2
2023/05/02 15:30:00, 0.0,18.5
2023/05/02 15:40:00, 0.0,19.0
2023/05/02 15:50:00, 0.0,18.6
2023/05/02 16:00:00, 0.0,17.6
2023/05/02 16:10:00, 0.0,18.2
2023/05/02 16:20:00, 0.0,18.4
2023/05/02 16:30:00, 0.0,19.5
2023/05/02 16:40:00, 0.0,17.7
2023/05/02 16:50:00, 0.0,17.1
2023/05/02 17:00:00, 0.0,16.8
2023/05/02 17:10:00, 0.0,17.0
2023/05/02 17:20:00, 0.0,16.8
2023/05/02 17:30:00, 0.0,18.2
2023/05/02 17:40:00, 0.0,18.5
2023/05/02 17:50:00, 0.0,18.2
2023/05/02 18:00:00, 0.0,17.5
2023/05/02 18:10:00, 0.0,17.3
2023/05/02 18:20:00, 0.0,15.7
2023/05/02 18:30:00, 0.0,14.2
2023/05/02 18:40:00, 0.0,13.8
2023/05/02 18:50:00, 0.0,13.2
2023/05/02 19:00:00, 0.0,13.2
2023/05/02 19:10:00, 0.0,13.3
2023/05/02 19:20:00, 0.0,13.2
2023/05/02 19:30:00, 0.0,13.1
2023/05/02 19:40:00, 0.0,13.2
2023/05/02 19:50:00, 0.0,13.3
2023/05/02 20:00:00, 0.0,13.0
2023/05/02 20:10:00, 0.0,12.9
2023/05/02 20:20:00, 0.0,13.0
2023/05/02 20:30:00, 0.0,12.7
2023/05/02 20:40:00, 0.0,13.2
2023/05/02 20:50:00, 0.0,12.8
2023/05/02 21:00:00, 0.0,13.3
2023/05/02 21:10:00, 0.0,13.2
2023/05/02 21:20:00, 0.0,11.3
2023/05/02 21:30:00, 0.0, 9.7
2023/05/02 21:40:00, 0.0, 9.6
2023/05/02 21:50:00, 0.0, 9.9
2023/05/02 22:00:00, 0.0, 8.5
2023/05/02 22:10:00, 0.0, 9.4
2023/05/02 22:20:00, 0.0, 9.9
2023/05/02 22:30:00, 0.0, 9.5
2023/05/02 22:40:00, 0.0,10.4
2023/05/02 22:50:00, 0.0, 9.2
2023/05/02 23:00:00, 0.0, 8.3
2023/05/02 23:10:00, 0.0, 8.4
2023/05/02 23:20:00, 0.0,10.1
2023/05/02 23:30:00, 0.0, 8.6
2023/05/02 23:40:00, 0.0,10.0
2023/05/02 23:50:00, 0.0,10.3
